Time;RSxb_Hgw;RFxb_Hgw;RFxb_setup;RFxb_runup;RFxb_Hig;RFxb_Hvlf
13/03/2017 18:10;1.380;0.051;0.223;0.289;0.084;0.013
13/03/2017 18:20;1.360;0.052;0.217;0.320;0.086;0.014
13/03/2017 18:30;1.341;0.054;0.212;0.331;0.090;0.013
13/03/2017 18:40;1.344;0.055;0.208;0.336;0.092;0.018
13/03/2017 18:50;1.332;0.056;0.204;0.343;0.089;0.020
13/03/2017 19:00;1.351;0.058;0.204;0.352;0.090;0.021
13/03/2017 19:10;1.326;0.060;0.198;0.359;0.093;0.021
13/03/2017 19:20;1.343;0.062;0.191;0.365;0.098;0.024
13/03/2017 19:30;1.296;0.062;0.184;0.369;0.102;0.023
13/03/2017 19:40;1.309;0.064;0.184;0.379;0.108;0.021
13/03/2017 19:50;1.305;0.066;0.179;0.385;0.107;0.022
13/03/2017 20:00;1.288;0.067;0.175;0.392;0.108;0.019
13/03/2017 20:10;1.294;0.069;0.173;0.400;0.105;0.017
13/03/2017 20:20;1.280;0.070;0.168;0.404;0.107;0.015
13/03/2017 20:30;1.267;0.070;0.165;0.409;0.111;0.014
13/03/2017 20:40;1.261;0.071;0.164;0.415;0.113;0.014
13/03/2017 20:50;1.272;0.073;0.163;0.420;0.113;0.014
13/03/2017 21:00;1.263;0.073;0.164;0.426;0.115;0.018
13/03/2017 21:10;1.262;0.075;0.162;0.428;0.112;0.017
13/03/2017 21:20;1.264;0.075;0.160;0.430;0.107;0.016
13/03/2017 21:30;1.255;0.075;0.162;0.433;0.108;0.018
13/03/2017 21:40;1.270;0.076;0.163;0.434;0.112;0.018
13/03/2017 21:50;1.263;0.077;0.162;0.434;0.111;0.018
13/03/2017 22:00;1.244;0.076;0.159;0.430;0.113;0.014
13/03/2017 22:10;1.232;0.076;0.159;0.427;0.114;0.016
13/03/2017 22:20;1.230;0.076;0.160;0.426;0.108;0.016
13/03/2017 22:30;1.223;0.075;0.158;0.420;0.105;0.016
13/03/2017 22:40;1.212;0.074;0.158;0.415;0.106;0.016
13/03/2017 22:50;1.193;0.073;0.158;0.408;0.106;0.014
13/03/2017 23:00;1.189;0.072;0.159;0.403;0.109;0.015
13/03/2017 23:10;1.190;0.070;0.161;0.397;0.112;0.017
13/03/2017 23:20;1.188;0.068;0.163;0.391;0.110;0.017
13/03/2017 23:30;1.188;0.068;0.167;0.386;0.106;0.021
13/03/2017 23:40;1.187;0.067;0.167;0.376;0.102;0.022
13/03/2017 23:50;1.159;0.065;0.162;0.364;0.101;0.022
14/03/2017 00:00;1.115;0.062;0.163;0.355;0.095;0.017
14/03/2017 00:10;1.104;0.060;0.166;0.348;0.088;0.011
14/03/2017 00:20;1.115;0.059;0.170;0.343;0.090;0.017
14/03/2017 00:30;1.122;0.057;0.173;0.338;0.097;0.017
14/03/2017 00:40;1.108;0.056;0.180;0.333;0.095;0.013
14/03/2017 00:50;1.134;0.055;0.182;0.327;0.086;0.014
14/03/2017 01:00;1.141;0.053;0.192;0.315;0.085;0.016
14/03/2017 01:10;1.154;0.053;0.195;0.287;0.080;0.013
14/03/2017 01:20;1.155;0.051;0.200;0.273;0.075;0.013
14/03/2017 01:30;1.157;0.050;0.202;0.262;0.072;0.011
14/03/2017 01:40;1.138;0.048;0.202;0.249;0.069;0.012
14/03/2017 01:50;1.138;0.046;0.208;0.242;0.069;0.011
14/03/2017 02:00;1.138;0.045;0.211;0.234;0.068;0.009
14/03/2017 02:10;1.127;0.044;0.210;0.221;0.067;0.010
14/03/2017 02:20;1.128;0.043;0.212;0.212;0.067;0.009
14/03/2017 02:30;1.127;0.042;0.211;0.202;0.066;0.007
14/03/2017 02:40;1.119;0.040;0.209;0.190;0.063;0.008
14/03/2017 02:50;1.129;0.039;0.211;0.184;0.058;0.011
14/03/2017 03:00;1.130;0.038;0.212;0.177;0.054;0.010
14/03/2017 03:10;1.130;0.037;0.210;0.169;0.052;0.010
14/03/2017 03:20;1.092;0.036;0.210;0.163;0.048;0.009
14/03/2017 03:30;1.110;0.036;0.208;0.156;0.048;0.010
14/03/2017 03:40;1.076;0.035;0.205;0.151;0.046;0.008
14/03/2017 03:50;1.060;0.034;0.205;0.147;0.040;0.010
14/03/2017 04:00;1.076;0.034;0.203;0.144;0.045;0.010
14/03/2017 04:10;1.070;0.033;0.201;0.142;0.048;0.010
14/03/2017 04:20;1.069;0.033;0.199;0.141;0.048;0.010
14/03/2017 04:30;1.077;0.033;0.194;0.140;0.048;0.010
14/03/2017 04:40;1.041;0.033;0.191;0.140;0.044;0.008
14/03/2017 04:50;1.046;0.033;0.188;0.142;0.039;0.009
14/03/2017 05:00;1.045;0.033;0.185;0.145;0.041;0.009
14/03/2017 05:10;1.038;0.033;0.181;0.148;0.042;0.010
14/03/2017 05:20;1.023;0.034;0.175;0.151;0.042;0.010
14/03/2017 05:30;1.000;0.034;0.173;0.157;0.042;0.009
14/03/2017 05:40;1.015;0.035;0.169;0.163;0.045;0.009
14/03/2017 05:50;1.009;0.036;0.166;0.171;0.048;0.007
14/03/2017 06:00;1.004;0.036;0.163;0.180;0.051;0.008
14/03/2017 06:10;1.018;0.038;0.158;0.187;0.053;0.009
14/03/2017 06:20;1.000;0.038;0.152;0.194;0.054;0.012
14/03/2017 06:30;0.996;0.039;0.147;0.202;0.055;0.011
14/03/2017 06:40;0.997;0.040;0.143;0.213;0.058;0.012
14/03/2017 06:50;0.989;0.042;0.139;0.222;0.061;0.013
14/03/2017 07:00;0.993;0.043;0.136;0.234;0.063;0.013
14/03/2017 07:10;0.991;0.044;0.133;0.245;0.064;0.015
14/03/2017 07:20;0.988;0.046;0.132;0.258;0.064;0.016
14/03/2017 07:30;1.002;0.048;0.128;0.269;0.076;0.016
14/03/2017 07:40;0.989;0.049;0.125;0.281;0.078;0.015
14/03/2017 07:50;1.009;0.051;0.119;0.294;0.080;0.015
14/03/2017 08:00;0.971;0.051;0.117;0.319;0.080;0.016
14/03/2017 08:10;0.988;0.054;0.115;0.332;0.079;0.018
14/03/2017 08:20;1.006;0.055;0.112;0.337;0.082;0.019
14/03/2017 08:30;0.993;0.056;0.113;0.344;0.083;0.016
14/03/2017 08:40;1.011;0.058;0.111;0.349;0.088;0.016
14/03/2017 08:50;1.016;0.060;0.107;0.351;0.089;0.017
14/03/2017 09:00;0.993;0.060;0.107;0.357;0.080;0.016
14/03/2017 09:10;1.010;0.062;0.107;0.363;0.085;0.015
14/03/2017 09:20;1.012;0.063;0.107;0.367;0.087;0.013
14/03/2017 09:30;1.000;0.063;0.105;0.369;0.085;0.014
14/03/2017 09:40;1.011;0.064;0.108;0.373;0.090;0.015
14/03/2017 09:50;1.018;0.065;0.109;0.376;0.093;0.014
14/03/2017 10:00;1.020;0.066;0.110;0.376;0.092;0.015
14/03/2017 10:10;1.042;0.065;0.113;0.380;0.090;0.016
14/03/2017 10:20;1.047;0.066;0.115;0.380;0.089;0.015
14/03/2017 10:30;1.056;0.066;0.120;0.382;0.090;0.015
14/03/2017 10:40;1.080;0.066;0.120;0.379;0.092;0.016
14/03/2017 10:50;1.054;0.066;0.121;0.375;0.096;0.014
14/03/2017 11:00;1.071;0.064;0.123;0.372;0.095;0.013
14/03/2017 11:10;1.075;0.064;0.125;0.368;0.097;0.013
14/03/2017 11:20;1.067;0.063;0.125;0.361;0.097;0.013
14/03/2017 11:30;1.070;0.061;0.126;0.356;0.095;0.013
14/03/2017 11:40;1.076;0.060;0.128;0.351;0.095;0.013
14/03/2017 11:50;1.069;0.059;0.129;0.344;0.094;0.012
14/03/2017 12:00;1.066;0.057;0.131;0.339;0.092;0.012
14/03/2017 12:10;1.064;0.056;0.136;0.335;0.090;0.013
14/03/2017 12:20;1.063;0.055;0.138;0.331;0.088;0.015
14/03/2017 12:30;1.067;0.054;0.141;0.317;0.087;0.015
14/03/2017 12:40;1.063;0.053;0.145;0.297;0.088;0.014
14/03/2017 12:50;1.056;0.051;0.148;0.276;0.085;0.015
14/03/2017 13:00;1.050;0.049;0.150;0.262;0.082;0.015
14/03/2017 13:10;1.035;0.048;0.152;0.251;0.078;0.015
14/03/2017 13:20;1.021;0.047;0.157;0.242;0.073;0.014
14/03/2017 13:30;1.040;0.045;0.163;0.236;0.069;0.015
14/03/2017 13:40;1.032;0.045;0.167;0.227;0.065;0.012
14/03/2017 13:50;1.025;0.044;0.171;0.219;0.064;0.011
14/03/2017 14:00;1.021;0.042;0.173;0.209;0.061;0.010
14/03/2017 14:10;1.010;0.041;0.175;0.198;0.057;0.010
14/03/2017 14:20;1.011;0.040;0.176;0.188;0.054;0.011
14/03/2017 14:30;1.000;0.039;0.178;0.180;0.051;0.011
14/03/2017 14:40;0.997;0.037;0.180;0.172;0.049;0.008
14/03/2017 14:50;0.996;0.036;0.180;0.164;0.047;0.007
14/03/2017 15:00;0.984;0.035;0.178;0.154;0.045;0.007
14/03/2017 15:10;0.984;0.034;0.178;0.146;0.043;0.009
14/03/2017 15:20;0.984;0.033;0.179;0.141;0.041;0.008
14/03/2017 15:30;0.986;0.033;0.179;0.136;0.042;0.007
14/03/2017 15:40;0.991;0.032;0.178;0.131;0.043;0.008
14/03/2017 15:50;0.982;0.031;0.175;0.125;0.040;0.008
14/03/2017 16:00;0.986;0.031;0.174;0.123;0.038;0.008
14/03/2017 16:10;1.004;0.031;0.173;0.121;0.038;0.008
14/03/2017 16:20;0.997;0.031;0.171;0.119;0.038;0.008
14/03/2017 16:30;0.996;0.030;0.169;0.120;0.038;0.009
14/03/2017 16:40;1.004;0.030;0.167;0.120;0.039;0.008
14/03/2017 16:50;1.002;0.030;0.164;0.122;0.039;0.009
14/03/2017 17:00;1.005;0.031;0.161;0.125;0.038;0.010
14/03/2017 17:10;1.006;0.031;0.159;0.128;0.040;0.009
14/03/2017 17:20;1.006;0.031;0.157;0.134;0.042;0.008
14/03/2017 17:30;1.017;0.032;0.154;0.140;0.043;0.009
14/03/2017 17:40;1.015;0.033;0.151;0.146;0.043;0.010
14/03/2017 17:50;1.017;0.034;0.149;0.154;0.044;0.010
14/03/2017 18:00;1.026;0.035;0.147;0.164;0.045;0.010
14/03/2017 18:10;1.014;0.035;0.144;0.172;0.047;0.012
14/03/2017 18:20;1.018;0.037;0.144;0.184;0.050;0.014
14/03/2017 18:30;1.014;0.038;0.142;0.195;0.054;0.014
14/03/2017 18:40;1.011;0.039;0.139;0.206;0.057;0.014
14/03/2017 18:50;1.026;0.041;0.138;0.220;0.060;0.015
14/03/2017 19:00;1.023;0.043;0.136;0.231;0.064;0.013
14/03/2017 19:10;1.053;0.044;0.134;0.243;0.071;0.015
14/03/2017 19:20;1.064;0.046;0.135;0.258;0.072;0.017
14/03/2017 19:30;1.069;0.049;0.132;0.271;0.075;0.018
14/03/2017 19:40;1.061;0.050;0.130;0.285;0.081;0.019
14/03/2017 19:50;1.093;0.051;0.130;0.310;0.083;0.018
14/03/2017 20:00;1.095;0.054;0.128;0.330;0.088;0.017
14/03/2017 20:10;1.078;0.056;0.123;0.336;0.090;0.017
14/03/2017 20:20;1.082;0.057;0.120;0.342;0.088;0.021
14/03/2017 20:30;1.086;0.059;0.118;0.349;0.088;0.020
14/03/2017 20:40;1.086;0.060;0.116;0.355;0.091;0.018
14/03/2017 20:50;1.083;0.061;0.115;0.362;0.094;0.019
14/03/2017 21:00;1.087;0.062;0.113;0.368;0.094;0.019
14/03/2017 21:10;1.067;0.063;0.111;0.373;0.095;0.018
14/03/2017 21:20;1.080;0.064;0.111;0.379;0.097;0.019
14/03/2017 21:30;1.076;0.065;0.110;0.383;0.097;0.020
14/03/2017 21:40;1.072;0.066;0.109;0.388;0.096;0.018
14/03/2017 21:50;1.069;0.067;0.109;0.391;0.096;0.017
14/03/2017 22:00;1.079;0.068;0.108;0.393;0.099;0.019
14/03/2017 22:10;1.066;0.068;0.110;0.397;0.099;0.018
14/03/2017 22:20;1.082;0.069;0.111;0.399;0.099;0.017
14/03/2017 22:30;1.078;0.069;0.112;0.400;0.097;0.019
14/03/2017 22:40;1.087;0.070;0.114;0.401;0.094;0.021
14/03/2017 22:50;1.095;0.070;0.115;0.399;0.097;0.021
14/03/2017 23:00;1.097;0.070;0.116;0.398;0.097;0.023
14/03/2017 23:10;1.101;0.069;0.118;0.395;0.096;0.021
14/03/2017 23:20;1.114;0.068;0.121;0.393;0.096;0.022
14/03/2017 23:30;1.120;0.068;0.124;0.390;0.096;0.021
14/03/2017 23:40;1.122;0.068;0.128;0.387;0.098;0.018
14/03/2017 23:50;1.131;0.067;0.132;0.383;0.099;0.019
15/03/2017 00:00;1.139;0.066;0.132;0.377;0.096;0.021
15/03/2017 00:10;1.122;0.065;0.135;0.371;0.092;0.021
15/03/2017 00:20;1.139;0.064;0.140;0.367;0.095;0.019
15/03/2017 00:30;1.144;0.063;0.143;0.362;0.095;0.018
15/03/2017 00:40;1.140;0.062;0.146;0.355;0.093;0.017
15/03/2017 00:50;1.138;0.061;0.149;0.349;0.097;0.018
15/03/2017 01:00;1.137;0.059;0.152;0.344;0.096;0.018
15/03/2017 01:10;1.130;0.058;0.155;0.339;0.095;0.017
15/03/2017 01:20;1.124;0.057;0.159;0.334;0.094;0.017
15/03/2017 01:30;1.116;0.055;0.161;0.330;0.093;0.017
15/03/2017 01:40;1.109;0.054;0.164;0.311;0.091;0.017
15/03/2017 01:50;1.100;0.052;0.167;0.285;0.088;0.016
15/03/2017 02:00;1.093;0.051;0.168;0.269;0.083;0.017
15/03/2017 02:10;1.081;0.049;0.170;0.258;0.079;0.016
15/03/2017 02:20;1.073;0.048;0.174;0.253;0.079;0.016
15/03/2017 02:30;1.076;0.047;0.176;0.245;0.075;0.015
15/03/2017 02:40;1.059;0.046;0.178;0.235;0.073;0.015
15/03/2017 02:50;1.059;0.044;0.177;0.225;0.072;0.015
15/03/2017 03:00;1.047;0.043;0.175;0.215;0.068;0.014
15/03/2017 03:10;1.034;0.042;0.176;0.208;0.066;0.012
15/03/2017 03:20;1.034;0.041;0.176;0.201;0.065;0.012
15/03/2017 03:30;1.028;0.040;0.177;0.195;0.064;0.012
15/03/2017 03:40;1.032;0.039;0.178;0.190;0.061;0.012
15/03/2017 03:50;1.022;0.039;0.177;0.185;0.059;0.012
15/03/2017 04:00;1.014;0.038;0.175;0.178;0.056;0.012
15/03/2017 04:10;1.011;0.038;0.175;0.175;0.054;0.012
15/03/2017 04:20;1.019;0.037;0.177;0.175;0.053;0.011
15/03/2017 04:30;1.007;0.038;0.174;0.171;0.053;0.011
15/03/2017 04:40;0.980;0.037;0.170;0.167;0.051;0.011
15/03/2017 04:50;0.980;0.036;0.166;0.163;0.049;0.012
15/03/2017 05:00;0.958;0.036;0.162;0.161;0.046;0.011
15/03/2017 05:10;0.947;0.035;0.159;0.161;0.049;0.009
15/03/2017 05:20;0.965;0.036;0.157;0.163;0.047;0.014
15/03/2017 05:30;0.944;0.036;0.153;0.163;0.050;0.012
15/03/2017 05:40;0.935;0.036;0.152;0.168;0.049;0.010
15/03/2017 05:50;0.950;0.037;0.152;0.174;0.049;0.015
15/03/2017 06:00;0.942;0.037;0.149;0.179;0.049;0.015
15/03/2017 06:10;0.939;0.038;0.146;0.184;0.051;0.012
15/03/2017 06:20;0.945;0.039;0.143;0.190;0.052;0.012
15/03/2017 06:30;0.936;0.039;0.141;0.198;0.054;0.011
15/03/2017 06:40;0.934;0.040;0.139;0.205;0.056;0.011
15/03/2017 06:50;0.924;0.041;0.135;0.213;0.055;0.014
15/03/2017 07:00;0.927;0.042;0.133;0.221;0.057;0.015
15/03/2017 07:10;0.924;0.044;0.129;0.229;0.060;0.015
15/03/2017 07:20;0.930;0.045;0.125;0.236;0.062;0.015
15/03/2017 07:30;0.930;0.045;0.123;0.245;0.065;0.016
15/03/2017 07:40;0.943;0.047;0.120;0.255;0.068;0.017
15/03/2017 07:50;0.935;0.048;0.116;0.262;0.070;0.015
15/03/2017 08:00;0.929;0.049;0.112;0.271;0.071;0.013
15/03/2017 08:10;0.920;0.050;0.107;0.280;0.072;0.015
15/03/2017 08:20;0.923;0.051;0.102;0.297;0.074;0.014
15/03/2017 08:30;0.913;0.052;0.100;0.316;0.071;0.015
15/03/2017 08:40;0.910;0.054;0.098;0.329;0.082;0.018
15/03/2017 08:50;0.914;0.055;0.097;0.335;0.094;0.018
15/03/2017 09:00;0.919;0.056;0.097;0.339;0.100;0.017
15/03/2017 09:10;0.921;0.057;0.096;0.343;0.101;0.017
15/03/2017 09:20;0.924;0.059;0.096;0.347;0.103;0.017
15/03/2017 09:30;0.919;0.060;0.093;0.349;0.107;0.019
15/03/2017 09:40;0.911;0.060;0.089;0.349;0.105;0.019
15/03/2017 09:50;0.893;0.060;0.086;0.351;0.106;0.017
15/03/2017 10:00;0.881;0.060;0.085;0.352;0.106;0.017
15/03/2017 10:10;0.886;0.060;0.086;0.354;0.102;0.018
15/03/2017 10:20;0.854;0.061;0.085;0.354;0.100;0.017
15/03/2017 10:30;0.913;0.061;0.091;0.358;0.090;0.026
15/03/2017 10:40;0.915;0.062;0.093;0.358;0.088;0.025
15/03/2017 10:50;0.893;0.062;0.087;0.352;0.098;0.026
15/03/2017 11:00;0.882;0.061;0.085;0.349;0.100;0.028
15/03/2017 11:10;0.884;0.060;0.089;0.347;0.091;0.023
15/03/2017 11:20;0.890;0.060;0.090;0.346;0.094;0.024
15/03/2017 11:30;0.901;0.059;0.096;0.347;0.090;0.027
15/03/2017 11:40;0.893;0.059;0.100;0.344;0.083;0.022
15/03/2017 11:50;0.935;0.058;0.109;0.345;0.087;0.026
15/03/2017 12:00;0.929;0.059;0.111;0.341;0.089;0.024
15/03/2017 12:10;0.947;0.057;0.109;0.337;0.091;0.031
15/03/2017 12:20;0.920;0.055;0.113;0.333;0.088;0.026
15/03/2017 12:30;0.944;0.055;0.119;0.332;0.091;0.025
15/03/2017 12:40;0.938;0.054;0.125;0.328;0.089;0.026
15/03/2017 12:50;0.957;0.053;0.129;0.316;0.094;0.025
15/03/2017 13:00;0.963;0.052;0.131;0.293;0.088;0.029
15/03/2017 13:10;0.950;0.051;0.132;0.269;0.076;0.023
15/03/2017 13:20;0.952;0.049;0.133;0.258;0.080;0.022
15/03/2017 13:30;0.936;0.048;0.134;0.248;0.085;0.023
15/03/2017 13:40;0.923;0.046;0.136;0.239;0.075;0.018
15/03/2017 13:50;0.917;0.045;0.138;0.230;0.067;0.014
15/03/2017 14:00;0.918;0.044;0.142;0.223;0.064;0.015
15/03/2017 14:10;0.925;0.043;0.147;0.218;0.066;0.014
15/03/2017 14:20;0.920;0.042;0.147;0.208;0.070;0.011
15/03/2017 14:30;0.905;0.041;0.147;0.199;0.068;0.010
15/03/2017 14:40;0.914;0.040;0.149;0.191;0.068;0.009
15/03/2017 14:50;0.912;0.039;0.149;0.183;0.066;0.009
15/03/2017 15:00;0.916;0.038;0.150;0.176;0.063;0.010
15/03/2017 15:10;0.930;0.037;0.152;0.172;0.060;0.010
15/03/2017 15:20;0.922;0.037;0.152;0.166;0.058;0.009
15/03/2017 15:30;0.914;0.036;0.156;0.164;0.057;0.010
15/03/2017 15:40;0.951;0.035;0.157;0.161;0.055;0.014
15/03/2017 15:50;0.933;0.035;0.158;0.158;0.052;0.015
15/03/2017 16:00;0.937;0.035;0.156;0.153;0.050;0.015
15/03/2017 16:10;0.923;0.034;0.152;0.148;0.049;0.017
15/03/2017 16:20;0.925;0.034;0.151;0.145;0.049;0.015
15/03/2017 16:30;0.932;0.033;0.150;0.145;0.050;0.013
15/03/2017 16:40;0.923;0.033;0.150;0.146;0.048;0.014
15/03/2017 16:50;0.925;0.034;0.150;0.148;0.046;0.013
15/03/2017 17:00;0.936;0.034;0.147;0.149;0.048;0.014
15/03/2017 17:10;0.923;0.034;0.144;0.150;0.048;0.014
15/03/2017 17:20;0.899;0.034;0.140;0.151;0.050;0.010
15/03/2017 17:30;0.878;0.034;0.134;0.151;0.052;0.008
15/03/2017 17:40;0.870;0.034;0.129;0.152;0.051;0.009
15/03/2017 17:50;0.877;0.034;0.128;0.159;0.054;0.009
15/03/2017 18:00;0.895;0.035;0.126;0.165;0.056;0.011
15/03/2017 18:10;0.893;0.036;0.124;0.172;0.054;0.012
15/03/2017 18:20;0.899;0.037;0.123;0.181;0.058;0.009
15/03/2017 18:30;0.907;0.038;0.122;0.190;0.062;0.009
15/03/2017 18:40;0.912;0.039;0.122;0.201;0.065;0.009
15/03/2017 18:50;0.917;0.040;0.119;0.209;0.070;0.010
15/03/2017 19:00;0.908;0.041;0.115;0.215;0.073;0.011
15/03/2017 19:10;0.910;0.042;0.111;0.223;0.073;0.009
15/03/2017 19:20;0.914;0.043;0.108;0.232;0.071;0.010
15/03/2017 19:30;0.914;0.045;0.106;0.241;0.074;0.010
15/03/2017 19:40;0.921;0.046;0.106;0.252;0.077;0.010
15/03/2017 19:50;0.952;0.048;0.110;0.274;0.078;0.013
15/03/2017 20:00;0.981;0.050;0.111;0.291;0.082;0.021
15/03/2017 20:10;0.981;0.052;0.107;0.315;0.087;0.025
15/03/2017 20:20;0.969;0.053;0.106;0.327;0.086;0.018
15/03/2017 20:30;0.988;0.054;0.104;0.334;0.090;0.023
15/03/2017 20:40;0.992;0.056;0.104;0.340;0.093;0.026
15/03/2017 20:50;1.011;0.057;0.104;0.346;0.099;0.024
15/03/2017 21:00;1.025;0.058;0.102;0.350;0.100;0.023
15/03/2017 21:10;1.016;0.060;0.100;0.354;0.105;0.024
15/03/2017 21:20;1.024;0.061;0.101;0.359;0.112;0.024
15/03/2017 21:30;0.999;0.062;0.099;0.363;0.112;0.023
15/03/2017 21:40;1.024;0.063;0.100;0.367;0.096;0.026
15/03/2017 21:50;1.055;0.064;0.099;0.371;0.090;0.030
15/03/2017 22:00;1.010;0.065;0.098;0.373;0.105;0.028
15/03/2017 22:10;1.019;0.065;0.098;0.376;0.101;0.030
15/03/2017 22:20;1.032;0.066;0.099;0.380;0.095;0.030
15/03/2017 22:30;1.026;0.066;0.101;0.381;0.099;0.027
15/03/2017 22:40;1.052;0.066;0.106;0.386;0.107;0.030
15/03/2017 22:50;1.060;0.067;0.106;0.386;0.109;0.028
15/03/2017 23:00;1.048;0.067;0.105;0.385;0.108;0.029
15/03/2017 23:10;1.026;0.067;0.103;0.381;0.107;0.029
15/03/2017 23:20;1.020;0.066;0.102;0.378;0.102;0.033
15/03/2017 23:30;1.003;0.066;0.100;0.374;0.101;0.028
15/03/2017 23:40;1.001;0.065;0.101;0.371;0.107;0.026
15/03/2017 23:50;0.988;0.064;0.101;0.367;0.109;0.026
16/03/2017 00:00;0.987;0.063;0.102;0.363;0.104;0.024
16/03/2017 00:10;0.972;0.063;0.102;0.358;0.107;0.016
16/03/2017 00:20;0.966;0.062;0.104;0.354;0.100;0.013
16/03/2017 00:30;0.959;0.061;0.105;0.350;0.093;0.012
16/03/2017 00:40;0.966;0.059;0.107;0.346;0.087;0.012
16/03/2017 00:50;0.968;0.059;0.109;0.343;0.085;0.015
16/03/2017 01:00;0.967;0.058;0.114;0.339;0.088;0.012
16/03/2017 01:10;0.989;0.056;0.121;0.338;0.091;0.018
16/03/2017 01:20;1.010;0.056;0.129;0.336;0.094;0.016
16/03/2017 01:30;1.032;0.056;0.134;0.334;0.096;0.018
16/03/2017 01:40;1.045;0.055;0.142;0.332;0.095;0.020
16/03/2017 01:50;1.061;0.055;0.156;0.334;0.090;0.020
16/03/2017 02:00;1.113;0.056;0.165;0.333;0.091;0.027
16/03/2017 02:10;1.143;0.055;0.174;0.332;0.095;0.033
16/03/2017 02:20;1.173;0.054;0.175;0.330;0.091;0.027
16/03/2017 02:30;1.123;0.053;0.174;0.306;0.095;0.025
16/03/2017 02:40;1.125;0.052;0.179;0.285;0.083;0.020
16/03/2017 02:50;1.138;0.051;0.184;0.274;0.089;0.018
16/03/2017 03:00;1.144;0.050;0.186;0.264;0.087;0.016
16/03/2017 03:10;1.143;0.049;0.188;0.256;0.088;0.011
16/03/2017 03:20;1.156;0.048;0.191;0.250;0.088;0.010
16/03/2017 03:30;1.163;0.047;0.195;0.246;0.091;0.010
16/03/2017 03:40;1.172;0.046;0.200;0.243;0.089;0.008
16/03/2017 03:50;1.165;0.046;0.201;0.237;0.086;0.008
16/03/2017 04:00;1.157;0.045;0.203;0.233;0.083;0.010
16/03/2017 04:10;1.183;0.045;0.207;0.232;0.081;0.010
16/03/2017 04:20;1.174;0.045;0.209;0.228;0.083;0.014
16/03/2017 04:30;1.179;0.045;0.211;0.227;0.080;0.018
16/03/2017 04:40;1.186;0.044;0.213;0.226;0.077;0.017
16/03/2017 04:50;1.185;0.044;0.213;0.224;0.076;0.018
16/03/2017 05:00;1.176;0.044;0.214;0.223;0.070;0.017
16/03/2017 05:10;1.182;0.044;0.210;0.221;0.075;0.019
16/03/2017 05:20;1.138;0.044;0.209;0.220;0.077;0.019
16/03/2017 05:30;1.175;0.043;0.204;0.218;0.075;0.015
16/03/2017 05:40;1.134;0.043;0.199;0.215;0.071;0.020
16/03/2017 05:50;1.130;0.042;0.197;0.217;0.071;0.021
16/03/2017 06:00;1.140;0.043;0.197;0.221;0.069;0.019
16/03/2017 06:10;1.149;0.043;0.196;0.227;0.067;0.020
16/03/2017 06:20;1.150;0.044;0.195;0.231;0.072;0.021
16/03/2017 06:30;1.163;0.045;0.194;0.236;0.076;0.021
16/03/2017 06:40;1.192;0.046;0.194;0.244;0.080;0.022
16/03/2017 06:50;1.170;0.047;0.194;0.254;0.082;0.021
16/03/2017 07:00;1.194;0.048;0.191;0.261;0.092;0.021
16/03/2017 07:10;1.164;0.049;0.191;0.275;0.095;0.025
16/03/2017 07:20;1.192;0.050;0.192;0.297;0.094;0.023
16/03/2017 07:30;1.218;0.052;0.190;0.314;0.097;0.024
16/03/2017 07:40;1.250;0.053;0.186;0.328;0.099;0.027
16/03/2017 07:50;1.196;0.054;0.188;0.335;0.102;0.026
16/03/2017 08:00;1.271;0.056;0.184;0.339;0.100;0.027
16/03/2017 08:10;1.264;0.057;0.177;0.344;0.092;0.040
16/03/2017 08:20;1.217;0.057;0.172;0.348;0.097;0.038
16/03/2017 08:30;1.181;0.059;0.178;0.355;0.102;0.029
16/03/2017 08:40;1.263;0.061;0.181;0.368;0.100;0.036
16/03/2017 08:50;1.331;0.063;0.184;0.376;0.091;0.041
16/03/2017 09:00;1.256;0.066;0.182;0.380;0.100;0.031
16/03/2017 09:10;1.268;0.066;0.178;0.385;0.102;0.041
16/03/2017 09:20;1.280;0.067;0.178;0.390;0.102;0.041
16/03/2017 09:30;1.303;0.068;0.167;0.389;0.100;0.043
16/03/2017 09:40;1.197;0.067;0.165;0.391;0.100;0.048
16/03/2017 09:50;1.223;0.068;0.165;0.395;0.098;0.042
16/03/2017 10:00;1.252;0.069;0.154;0.392;0.098;0.047
16/03/2017 10:10;1.164;0.068;0.161;0.400;0.097;0.050
16/03/2017 10:20;1.224;0.070;0.163;0.404;0.101;0.043
16/03/2017 10:30;1.232;0.071;0.159;0.403;0.106;0.050
16/03/2017 10:40;1.202;0.071;0.160;0.405;0.097;0.047
16/03/2017 10:50;1.204;0.071;0.158;0.402;0.099;0.045
16/03/2017 11:00;1.190;0.071;0.153;0.399;0.101;0.049
16/03/2017 11:10;1.160;0.070;0.149;0.394;0.100;0.043
16/03/2017 11:20;1.146;0.069;0.146;0.388;0.102;0.041
16/03/2017 11:30;1.145;0.068;0.149;0.389;0.094;0.049
16/03/2017 11:40;1.134;0.068;0.146;0.382;0.098;0.042
16/03/2017 11:50;1.138;0.067;0.150;0.383;0.096;0.048
16/03/2017 12:00;1.128;0.067;0.153;0.381;0.102;0.042
16/03/2017 12:10;1.124;0.066;0.153;0.376;0.105;0.040
16/03/2017 12:20;1.134;0.065;0.156;0.373;0.099;0.041
16/03/2017 12:30;1.118;0.064;0.157;0.368;0.101;0.037
16/03/2017 12:40;1.110;0.063;0.155;0.362;0.103;0.038
16/03/2017 12:50;1.075;0.062;0.154;0.354;0.100;0.038
16/03/2017 13:00;1.060;0.061;0.157;0.350;0.102;0.036
16/03/2017 13:10;1.075;0.059;0.159;0.346;0.087;0.037
16/03/2017 13:20;1.070;0.058;0.162;0.342;0.092;0.042
16/03/2017 13:30;1.055;0.057;0.164;0.337;0.097;0.036
16/03/2017 13:40;1.056;0.056;0.168;0.335;0.088;0.038
16/03/2017 13:50;1.070;0.055;0.171;0.332;0.086;0.039
16/03/2017 14:00;1.044;0.055;0.168;0.319;0.088;0.034
16/03/2017 14:10;1.035;0.053;0.165;0.285;0.084;0.031
16/03/2017 14:20;0.948;0.051;0.164;0.267;0.079;0.029
16/03/2017 14:30;0.978;0.050;0.163;0.254;0.092;0.024
16/03/2017 14:40;0.953;0.048;0.165;0.248;0.077;0.028
16/03/2017 14:50;0.958;0.047;0.166;0.242;0.086;0.019
16/03/2017 15:00;0.972;0.046;0.164;0.230;0.087;0.021
16/03/2017 15:10;0.936;0.045;0.167;0.225;0.073;0.024
16/03/2017 15:20;0.946;0.044;0.168;0.220;0.078;0.018
16/03/2017 15:30;0.944;0.043;0.169;0.214;0.081;0.020
16/03/2017 15:40;0.957;0.042;0.172;0.210;0.079;0.021
16/03/2017 15:50;0.954;0.041;0.173;0.206;0.077;0.020
16/03/2017 16:00;0.942;0.041;0.175;0.201;0.077;0.019
16/03/2017 16:10;0.949;0.040;0.177;0.199;0.073;0.020
16/03/2017 16:20;0.946;0.040;0.178;0.197;0.073;0.019
16/03/2017 16:30;0.954;0.040;0.179;0.195;0.069;0.019
16/03/2017 16:40;0.958;0.039;0.180;0.193;0.061;0.019
16/03/2017 16:50;0.961;0.039;0.180;0.192;0.061;0.020
16/03/2017 17:00;0.966;0.039;0.180;0.192;0.060;0.019
16/03/2017 17:10;0.973;0.039;0.182;0.194;0.060;0.019
16/03/2017 17:20;0.985;0.039;0.181;0.194;0.062;0.020
16/03/2017 17:30;0.989;0.039;0.181;0.197;0.062;0.019
16/03/2017 17:40;0.989;0.039;0.179;0.199;0.063;0.020
16/03/2017 17:50;0.979;0.040;0.176;0.200;0.067;0.021
16/03/2017 18:00;0.972;0.040;0.173;0.202;0.066;0.019
16/03/2017 18:10;0.970;0.040;0.172;0.206;0.067;0.020
16/03/2017 18:20;0.981;0.041;0.171;0.213;0.063;0.019
16/03/2017 18:30;0.968;0.042;0.169;0.218;0.062;0.021
16/03/2017 18:40;0.953;0.042;0.164;0.221;0.069;0.021
16/03/2017 18:50;0.958;0.043;0.163;0.229;0.074;0.020
16/03/2017 19:00;0.975;0.044;0.162;0.238;0.072;0.021
16/03/2017 19:10;0.979;0.045;0.160;0.247;0.079;0.025
16/03/2017 19:20;0.978;0.046;0.154;0.254;0.078;0.027
16/03/2017 19:30;0.962;0.048;0.147;0.257;0.078;0.029
16/03/2017 19:40;0.946;0.049;0.144;0.263;0.080;0.026
16/03/2017 19:50;0.956;0.050;0.141;0.278;0.075;0.024